Flag for Canada Weather past 2 weeks in Steinbach, Manitoba, Canada

Now
63 °F

Mild.


Feels Like: 63 °F
Forecast: 53 / 70 °F
Wind: 5 mph from Northwest

Location: Winnipeg The Forks

Current Time: Aug 3, 2015 at 1:56:05 AM

Latest Report: Aug 3, 2015 at 1:00 AM


Visibility: N/A

Pressure: 29.83 "Hg

Humidity: 58%

Dew point: 48 °F

Location of SteinbachLocation

Historic Weather in Steinbach — Graph

°F

Steinbach temperature yesterday

Maximum temperature yesterday: 73 °F (at 5:00 PM)
Minimum temperature yesterday: 61 °F (at 6:00 AM)
Average temperature yesterday: 68 °F

Past Weeks' High & Low Weather Summary

 TemperatureHumidityPressure
High89 °F (Jul 26, 5:00 PM)97% (Jul 24, 3:00 AM)29.99 "Hg (Jul 24, 3:00 AM)
Low56 °F (Jul 19, 4:00 AM)30% (Aug 2, 4:00 PM)29.27 "Hg (Jul 29, 1:00 AM)
Average72 °F63%29.78 "Hg
* Reported Midnight between Jul 18 and Jul 19 — Midnight between Aug 2 and Aug 3, Steinbach, Weather by CustomWeather, © 2015

Note: Actual official high and low records may vary slightly from our data, if they occured in-between our weather recording intervals... More about our weather records

Advertising

Steinbach weather history for previous 24 hours

 ConditionsComfort  
Time TempWeatherWind HumidityBarometerVisibility
12:00 AM
Mon, Aug 3
65 °FMild.6 mph51%29.83 "HgN/A
10:00 PM
Sun, Aug 2
65 °FMild.6 mph53%29.83 "HgN/A
9:00 PM67 °FMild.8 mph42%29.81 "HgN/A
8:00 PM69 °FMild.7 mph35%29.79 "HgN/A
7:00 PM72 °FMild.9 mph30%29.79 "HgN/A
6:00 PM73 °FMild.9 mph31%29.78 "HgN/A
5:00 PM73 °FMild.8 mph31%29.78 "HgN/A
4:00 PM73 °FMild.10 mph30%29.78 "HgN/A
2:00 PM72 °FMild.8 mph34%29.78 "HgN/A
1:00 PM71 °FMild.8 mph42%29.77 "HgN/A
12:00 PM71 °FMild.10 mph37%29.76 "HgN/A
11:00 AM70 °FMild.8 mph46%29.76 "HgN/A
10:00 AM69 °FMild.5 mph49%29.76 "HgN/A
8:00 AM63 °FMild.6 mph70%29.73 "HgN/A
6:00 AM61 °FCool.7 mph76%29.70 "HgN/A
5:00 AM62 °FCool.6 mph75%29.69 "HgN/A
4:00 AM64 °FMild.6 mph68%29.68 "HgN/A
3:00 AM65 °FMild.2 mph65%29.68 "HgN/A
2:00 AM66 °FMild.3 mph69%29.68 "HgN/A
1:00 AM68 °FMild.3 mph69%29.68 "HgN/A
Weather by CustomWeather, © 2015

See weather overviewHow to use our weather pages